Regional Weather Roundup
Issued by NWS Charleston, SC

Current Version | Previous Version | Graphics & Text | Print | Product List | Glossary On
Versions: 1 2 3 4 5 6 7 8 9 10 11 12 13 14 15 16 17 18 19 20 21 22 23 24 25 26 27 28 29 30 31 32 33 34 35 36 37 38 39 40 41 42 43 44 45 46 47 48 49 50
791
ASUS42 KCHS 181727
RWRCHS

REGIONAL WEATHER ROUNDUP
NATIONAL WEATHER SERVICE CHARLESTON SC
100 PM EDT WED OCT 18 2017

NOTE: "FAIR" INDICATES FEW OR NO CLOUDS BELOW 12,000 FEET WITH NO
SIGNIFICANT WEATHER AND/OR OBSTRUCTIONS TO VISIBILITY.

NOT ALL STATIONS ARE QUALITY CONTROLLED. USE DATA WITH CAUTION...
ESPECIALLY DEWPOINT OBSERVATIONS.

SCZ027-030-031-034>040-042>050-181800-
...SOUTHEAST SOUTH CAROLINA...

CITY           SKY/WX    TMP DP  RH WIND       PRES   REMARKS
N CHARLESTON   SUNNY     72  57  59 NE10      30.29F
WATERFRONT PRK   N/A     69  59  70 N13       30.13F
JOHNS ISLAND   FAIR      73  61  64 NE14      30.27F
PINOPOLIS        N/A     63  55  77 N7        30.23F
MONCKS CORNER  FAIR      68  52  56 N9        30.30F
SUMMERVILLE    FAIR      68  54  60 N5        30.31F
BEAUFORT MCAS  SUNNY     73  58  59 MISG      30.29F
BEAUFORT ARPT  FAIR      70  57  64 NE10      30.28F HAZE
HILTON HEAD IS SUNNY     70  57  64 NE9         N/A
WALTERBORO     SUNNY     70  52  52 N9        30.30F
ALLENDALE      NOT AVBL

...SOUTHERN MIDLANDS AND PEE DEE...

CITY           SKY/WX    TMP DP  RH WIND       PRES   REMARKS
GEORGETOWN     FAIR      70  55  60 NE10      30.31F
KINGSTREE      FAIR      68  46  45 NE3       30.32F
ORANGEBURG     SUNNY     67  40  37 NE7       30.33F
BARNWELL         N/A     70  43  37 NE8G15    30.31F
AIKEN          FAIR      66  36  32 NE9       30.36F
MANNING        HAZE      68  50  52 MISG      30.32F VSB 1/4
COLUMBIA       SUNNY     67  38  34 NE12      30.34F
SUMTER         SUNNY     66  38  34 NE9       30.33F
FLORENCE       SUNNY     66  42  41 NE9       30.35F
MYRTLE BEACH   SUNNY     70  55  59 NE9G17    30.32F
N MYRTLE BEACH SUNNY     70  54  56 NE9       30.31F

$$

GAZ063-065-086>088-099>101-113>116-118-119-134>141-150-181800-
...SOUTHEAST GEORGIA...

CITY           SKY/WX    TMP DP  RH WIND       PRES   REMARKS
SAVANNAH ARPT  MOSUNNY   73  56  54 N9        30.27F
HUNTER AAF     SUNNY     72  56  57 NE9       30.25F
FORT STEWART   SUNNY     72  55  53 NE8       30.25F
STATESBORO     SUNNY     72  46  39 E7        30.29F
SYLVANIA       SUNNY     71  52  51 NE6       30.30F
CLAXTON        FAIR      73  55  52 N7        30.28F

...CSRA...CENTRAL AND FAR SOUTHEAST GEORGIA...

CITY           SKY/WX    TMP DP  RH WIND       PRES   REMARKS
THOMSON        SUNNY     65  42  41 E9        30.38F
AUGUSTA-BUSH   SUNNY     70  39  32 E9        30.32F
AUGUSTA-DANIEL SUNNY     68  38  33 NE9       30.33F
SWAINSBORO     FAIR      68  43  40 MISG      30.30F
VIDALIA        SUNNY     72  52  49 NE7       30.28F
EASTMAN        FAIR      73  23  15 E9G17     30.31F
HAZLEHURST     FAIR      73  39  28 NE9       30.26F
ALMA           SUNNY     73  55  53 VRB6      30.25F
WAYCROSS       SUNNY     76  55  47 E7        30.24F
JESUP          NOT AVBL
BAXLEY         FAIR      72  54  53 E10       30.25F
BRUNSWICK      PTSUNNY   72  59  64 NE15G21   30.25F
SAINT SIMONS   CLOUDY    72  63  73 NE18G26   30.24F

$$

SCZ027-028-034-036>038-045-046-048>050-GAZ119-141-181800-
...LAKE AND SUPPLEMENTAL COASTAL OBSERVATIONS...

STATION/POSITION TIME  TEMP    WIND        PRES    WAVE   SWELL
                       AIR SEA DIR/SP/G            HT/PER HT/PER/DIR
                 (UTC) (F)     (DEG/KT/KT) (MB)    (FT/S) (FT/S/D)
WINYAH BAY       1645   66      60/ 12     1026.0F
LAKE MURRAY      1720   66      40/  2/  5 1026.4
ACE BASIN NERRS  1645   71      20/  4     1026.0S
FORT PULASKI     1700   67 74   40/  9/ 12 1025.3
SAPELO ISLAND    1700   69      40/ 13     1025.0

$$

ANZ835-935-AMZ111-154-330-350-352-354-370-450-454-472-181800-
...C-MAN AND BUOY OBSERVATIONS...

STATION/POSITION TIME  TEMP    WIND        PRES    WAVE   SWELL
                       AIR SEA DIR/SP/G            HT/PER HT/PER/DIR
                 (UTC) (F)     (DEG/KT/KT) (MB)    (FT/S) (FT/S/D)
BUOY 41004       1710   71 80   30/ 21/ 27 1024.0
BUOY 41008       1650   71 78   40/ 21/ 25 1023.2F   7/10   3/100/10
FOLLY BEACH CMAN 1700   67      30/ 18/ 20 1025.9F
CAPERS NEARSHORE 1708   65 74   30/ 14/ 17 1025.3F
FRIPP NEARSHORE  1708   69      50/ 16/ 21   N/A


STATION/POSITION TIME  TEMP    WIND        PRES    WAVE   SWELL
                       AIR SEA DIR/SP/G            HT/PER HT/PER/DIR
                 (UTC) (F)     (DEG/KT/KT) (MB)    (FT/S) (FT/S/D)
5E ST. MARYS GA  1700      78                N/A     7/10   2/110/11
FRYING PAN BUOY  1710   71 76   30/ 23/ 27 1024.6
BUOY 41025       1650   70 82   20/ 19/ 23 1025.5F   6/ 9   3/110/ 9
CAPE LOOKOUT NC  1700   69      10/ 13/ 17 1026.2F
BUOY 41002       1650   75 80   50/ 23/ 27 1020.3F  10/ 8
BUOY 41010       NOT AVBL
ST AUGUSTINE FL  1700   78 80   50/ 19/ 22 1022.0F


$$




USA.gov is the U.S. government's official web portal to all federal, state and local government web resources and services.